User: anonymous   Login
Location: Unspecified
(0.0000°N, 0.0000°E)
Time: 03:59:18
(UTC+00:00)
Language:

MOZHAYETS - Orbit

View from above orbital plane
View from above orbital plane
View from above satellite
View from above satellite

Ground track
Ground track

The orbit data is extracted from the following two-line orbital elements,

1 27560U 02054B   17327.90517927  .00000132  00000-0  39091-4 0  9993
2 27560  98.2301 100.3761 0040438 337.5277 134.6086 14.57665270795266
Epoch (UTC): 23 November 2017 21:43:27
Eccentricity: 0.0040438
inclination: 98.2301°
perigee height: 672 km
apogee height: 729 km
right ascension of ascending node: 100.3761°
argument of perigee: 337.5277°
revolutions per day: 14.57665270
mean anomaly at epoch: 134.6086°
orbit number at epoch: 79526

The dashed part of the orbit path shows where the satellite is in the earth's shadow,  

DLR